THOR ABLESTAR DEB, 5265

Orbit data source: Space-Track

THOR ABLESTAR DEB, 5265 is space debris in LEO originally from a launch on Fri, 13 Aug 1965 UTC launched from the Air Force Western Test Range (AFWTR). Debris objects in space refer to the collection of defunct objects orbiting the Earth. Examples of debris include non-operational satellites, rocket bodies, and fragments generated from explosions, collisions, or faulty payload assembly.

Loading next visibility...
Identifier
5265, 1965-065Q
Orbit
LEO
Country
Flag of USUS
Related business
Manufacturer
Unknown
Mission
Spacecraft
Bus & Motor
Unknown
Mass
Unknown
Launch date (UTC)
1965-08-13 (61 years ago)
Launch vehicle
Unknown
Launch site
Air Force Western Test Range (AFWTR)
Object type
Payload
Rocket body
Debris
Shape & HBR
Unknown shape, 0.1 m
Radar Cross Section
Medium (>0.1 m² and <1 m²)

Expand to show TLE details & history
Last TLE update: 21 hours ago

TLE from 21 hours ago
0 THOR ABLESTAR DEB
1 05265U 65065Q   26237.46654230  .00000111  00000-0  17888-3 0  9998
2 05265  90.1316 306.6751 0042828 153.6403 266.8149 13.42524592981915
Epoch: 2026-08-25T11:11Z
TLE epoch observation values (Epoch: 2026-08-25T11:11:49.254Z)
Latitude
60.05443°
Longitude
164.75912°
Altitude
1,112.101 km
Speed
7.301 km/s
True Right ascension
20h 25m 47s
True Declination
59° 54' 45"
Sunlit
Object was in daylight at epoch
Visualization orbit readout
Latitude
Unknown
Longitude
Unknown
Altitude
Unknown
Speed
Unknown
Apparent Right ascension
Unknown
Apparent Declination
Unknown
Sunlit
N/A
Visualization observer readout
Local Sidereal Time
23:17:47
Azimuth
Unknown
Elevation
Unknown
Doppler factor
Unknown
Orbital elements
Apogee altitude
1,128.965 km
Perigee altitude
1,064.936 km
Semi-major axis
7,475.087 km
Eccentricity
0.00428
Inclination
90.1316°
RAAN
306.6751°
Arg. of periapsis
153.6403°
True anomaly
266.32504°
Mean anomaly
266.8149°
Eccentric anomaly
266.56995°
Mean motion
3.35829 °/min
Orbital period
107.2 mins
BSTAR
0.00017888
Loading maneuver chart data...
Computing Atmospheric mass density...
Loading historical data...
Loading historical data...
Loading historical data...
Loading historical data...
Loading historical data...
Loading historical data...
Loading historical data...

Documentation

Showing up to 5 results
|